G4MHJ-1 Weather Reports


time (UTC)temp
F
wind
direction
speed
knots
gust
knots
rain 1hr
in
rain 24hr
in
rain mn
in
humidity
%
barometer
mb
20260506112143 54 5 4.3 10.4 0.00 0.00 0.00 67 1012.8
20260506102143 54 9 5.2 13.9 0.00 0.00 0.00 67 1012.8
20260506092144 51 10 4.3 13.9 0.00 0.00 0.00 73 1012.9
20260506082144 51 355 5.2 11.3 0.00 0.00 0.00 76 1012.5
20260506072143 48 348 4.3 10.4 0.00 0.00 0.00 83 1012.7
20260506062144 46 49 4.3 8.7 0.00 0.00 0.00 85 1012.5
20260506042143 47 80 4.3 11.3 0.00 0.00 0.00 84 1012.2
20260506032143 48 24 4.3 10.4 0.00 0.00 0.00 82 1012.1
20260506022137 49 33 2.6 7.0 0.00 0.00 0.00 86 1012.4
20260506012137 49 39 2.6 7.0 0.00 0.00 0.00 84 1012.6
20260506002135 50 44 2.6 7.8 0.00 0.00 0.00 83 1012.8
20260505232135 51 50 3.5 10.4 0.00 0.00 0.00 82 1012.8
20260505222134 52 32 4.3 7.8 0.00 0.00 0.00 84 1012.8
20260505212132 53 43 0.9 5.2 0.00 0.00 0.00 77 1012.7
20260505202131 54 46 0.9 6.1 0.00 0.00 0.00 74 1012.4
20260505192129 55 141 0.0 4.3 0.00 0.00 0.00 74 1011.6
20260505182129 57 94 0.0 5.2 0.00 0.00 0.00 69 1011.2
20260505172128 57 123 0.0 5.2 0.00 0.00 0.00 65 1011.3
20260505162130 59 182 0.9 6.1 0.00 0.00 0.00 60 1011.4
20260505152128 62 53 1.7 6.1 0.00 0.00 0.00 54 1011.4
20260505122121 61 49 3.5 9.6 0.00 0.00 0.00 57 1011.9